Location: Pensacola
(30.4142°N, 87.2155°W)
Time: 19:10:48
(UTC-05:00)

AO-27 - Pass Details

Date: 04 June 2024
Orbit: 783 x 797 km, 98.8° (Epoch: 21 June)

Event Time Altitude Azimuth Distance (km) Brightness Sun altitude
Exits shadow 21:11:40 24° 147° (SSE) 1,598 8.7 -15.9°
Maximum altitude 21:14:46 61° 75° (ENE) 893 7.7 -16.4°
Drops below altitude 10° 21:19:53 10° 355° (N) 2,351 10.7 -17.3°
Sets 21:22:13 0° 352° (N) 3,281 11.6 -17.7°
